Wind_Speed
57 54 53 52 52 50 47 49 55 49 54 56 56 59 59 58 63 59 57 58 58 62 66 65 68 68 71 75 73 73 73 74 74 74 73 72 72 74
58 56 56 54 54 55 53 50 53 57 56 60 57 55 62 65 62 59 63 65 66 68 71 72 70 73 75 75 75 74 74 74 73 73 72 72 73 73
61 60 57 58 58 57 55 53 55 57 60 61 56 61 63 65 67 65 69 68 70 71 72 73 74 74 75 75 74 74 75 74 75 76 77 78 79 80
61 60 60 57 55 55 57 60 61 61 61 62 65 67 70 72 73 70 70 71 72 72 72 72 74 74 76 77 78 79 80 80 82 83 84 86 87 89
55 57 58 60 61 57 58 60 61 61 63 63 65 72 69 63 65 68 69 75 72 68 70 74 77 80 84 86 87 88 89 90 92 93 94 96 97 98
48 49 50 54 57 58 62 62 56 61 62 66 67 64 62 65 68 72 77 70 70 72 77 82 85 89 93 96 97 99 101 102 104 105 107 108 107 106
47 48 55 52 55 60 65 57 60 61 61 58 59 63 68 71 72 72 72 75 77 81 85 90 94 98 103 106 106 104 101 94 89 83 78 74 71 68
43 47 49 56 58 59 63 62 67 59 57 62 64 65 68 70 71 74 77 80 83 89 93 98 103 103 95 79 69 64 61 60 58 57 55 54 52 51
39 47 48 53 53 56 55 57 58 59 63 65 64 65 69 74 76 80 85 88 92 98 99 90 76 57 54 56 59 62 64 66 66 66 64 61 58 56
44 46 51 54 55 52 53 53 56 59 62 66 70 74 78 82 85 88 91 92 85 63 57 45 50 51 54 55 58 59 58 56 56 56 57 58 58 59
47 45 44 47 49 50 51 54 58 63 68 72 77 81 85 88 88 85 70 50 40 48 51 49 45 38 38 42 43 44 42 40 38 35 30 25 24 29
34 35 37 41 45 51 56 61 65 71 77 82 85 85 79 67 48 35 37 42 45 47 41 29 31 30 28 33 38 39 38 36 34 32 30 27 24 20
32 37 42 47 53 58 63 67 74 78 76 70 60 47 34 31 34 37 41 42 37 34 31 27 29 30 29 27 31 35 35 37 34 30 24 19 17 15
36 41 47 53 59 64 67 70 65 55 46 36 29 30 31 31 33 38 41 38 36 34 33 27 27 30 31 30 29 31 32 34 26 29 27 23 18 17
42 48 52 58 65 62 53 47 43 33 27 29 28 29 30 31 33 37 40 37 38 37 32 29 28 29 31 33 29 29 22 28 29 29 31 28 25 24
46 54 57 62 57 45 42 33 28 27 28 30 30 31 31 32 33 35 37 39 35 36 37 35 34 34 34 33 31 28 17 19 23 25 24 29 31 33
52 57 59 51 42 34 28 27 27 29 31 31 32 32 32 32 33 34 36 39 38 33 33 36 35 34 36 35 30 27 26 30 23 27 30 26 34 39
58 62 53 39 30 27 26 28 30 31 31 32 31 31 31 30 33 35 36 36 38 34 32 32 30 30 33 36 40 35 34 33 35 38 37 33 32 38
62 57 40 29 27 27 30 31 31 31 32 32 32 31 31 32 33 34 35 36 37 35 33 31 28 28 25 24 34 42 36 35 33 35 36 34 30 28
60 42 30 26 29 31 33 32 32 32 31 31 30 30 29 30 31 33 34 35 36 34 32 33 32 30 28 26 25 32 40 40 40 39 37 34 29 21
46 31 25 27 31 32 32 32 32 31 30 30 30 30 30 30 31 32 33 35 36 36 33 32 33 33 34 34 32 33 38 43 44 42 36 31 27 21
34 26 27 29 30 30 33 32 31 30 30 30 31 31 30 30 30 31 33 33 34 35 35 34 35 34 36 36 34 35 34 39 42 41 40 36 27 11
27 27 28 29 29 31 32 32 31 30 30 30 30 30 30 30 31 32 33 34 35 35 36 32 32 33 36 37 38 39 39 39 38 33 35 36 32 22
Wind_Direction
264 264 266 270 274 274 281 284 284 281 290 290 284 291 288 282 277 275 279 282 285 287 287 291 290 287 288 288 286 285 283 283 282 280 278 276 274 273
263 264 266 271 272 271 277 280 284 279 289 290 285 285 289 283 280 281 280 282 282 286 286 289 286 285 286 286 285 284 283 282 281 279 277 274 272 270
266 269 271 271 274 274 279 280 276 279 283 285 284 285 283 282 282 281 282 286 287 288 288 289 289 288 286 285 285 284 281 280 278 277 276 274 273 271
268 271 272 274 273 276 267 278 273 278 279 283 285 281 285 284 280 280 282 281 285 291 291 290 290 289 289 287 286 285 282 281 279 277 276 274 273 272
269 271 271 272 273 273 275 273 277 276 283 282 289 285 287 283 280 282 283 289 294 293 291 291 292 291 289 288 286 284 282 280 278 276 275 274 273 271
266 270 263 275 275 275 272 272 286 283 279 278 286 286 281 283 285 283 292 294 293 292 292 292 291 290 289 288 286 285 283 282 280 278 276 274 274 273
265 265 269 269 276 272 284 282 283 284 286 283 285 285 286 290 292 293 294 293 293 293 292 291 291 291 290 289 288 286 285 284 281 280 279 277 275 273
273 275 273 267 271 276 280 280 277 285 281 285 289 294 294 292 292 292 293 292 292 295 294 293 292 291 293 294 292 292 291 289 288 286 282 278 274 270
268 268 275 274 277 280 280 275 277 284 293 296 294 291 291 292 294 294 294 296 296 294 294 296 296 299 299 297 294 292 291 290 289 287 283 279 276 271
269 272 277 274 279 280 290 295 294 295 296 296 295 295 294 294 295 296 296 297 298 297 295 301 297 297 296 293 292 296 297 299 297 295 291 285 279 273
276 278 277 278 293 293 292 294 295 295 295 295 296 296 296 296 296 297 299 300 301 299 302 304 301 303 300 298 303 305 312 315 319 320 319 313 300 282
296 296 295 296 297 297 298 298 299 299 297 296 295 295 296 298 301 302 303 303 301 301 304 310 309 310 306 297 304 309 317 323 325 327 330 328 320 309
301 302 303 302 302 302 301 300 299 298 298 299 301 304 306 306 308 309 311 310 310 310 311 314 309 311 311 309 306 307 313 313 319 326 332 338 334 327
307 307 306 308 312 311 305 301 301 303 304 307 308 306 306 307 314 322 323 318 315 313 311 313 313 311 309 307 305 306 312 308 313 318 322 324 321 318
309 312 311 314 319 314 307 304 305 306 307 306 306 307 308 311 317 326 328 321 316 316 309 314 317 315 316 314 313 307 310 300 307 311 322 318 312 318
312 316 319 323 319 311 307 306 307 308 310 309 308 309 311 311 312 317 326 328 318 315 312 315 318 318 320 316 313 318 310 311 296 292 298 297 295 296
317 323 326 322 316 311 308 311 313 314 313 311 310 309 311 313 317 319 320 328 326 316 311 313 318 320 322 318 318 325 317 317 306 296 306 298 290 285
330 331 324 318 311 311 313 317 315 312 309 307 306 306 306 314 317 321 324 325 329 320 314 313 316 320 324 323 319 315 314 313 312 310 310 307 298 297
332 328 319 314 313 313 317 316 313 310 308 307 306 306 306 308 313 320 325 325 327 326 319 315 317 320 319 319 316 314 318 314 311 309 310 309 310 306
329 320 313 312 314 317 318 316 313 311 309 308 309 308 308 310 313 318 322 326 327 329 327 319 321 320 322 323 319 312 316 320 321 320 317 318 319 307
322 311 312 316 318 319 319 318 315 313 311 311 312 313 312 310 314 316 321 325 329 331 331 325 320 319 325 327 326 323 320 322 324 324 321 323 325 317
311 308 314 318 321 322 321 321 321 318 314 311 312 312 311 312 315 316 319 325 326 330 334 327 319 320 317 321 326 326 322 320 324 324 322 328 336 316
305 307 315 320 322 324 324 322 322 321 318 317 316 315 313 312 314 317 320 325 326 331 329 319 315 316 320 324 327 326 325 325 325 323 316 319 322 324
Height
5710 5711 5711 5711 5711 5711 5709 5707 5704 5702 5699 5694 5690 5686 5684 5680 5678 5677 5673 5669 5664 5662 5660 5656 5652 5648 5646 5643 5637 5634 5630 5628 5625 5623 5621 5620 5618 5616
5698 5699 5699 5699 5699 5697 5695 5694 5690 5687 5683 5680 5675 5672 5669 5665 5661 5658 5655 5653 5648 5644 5640 5636 5632 5629 5624 5620 5616 5612 5608 5604 5601 5598 5596 5594 5592 5590
5686 5687 5687 5687 5686 5685 5682 5679 5674 5670 5669 5666 5662 5657 5653 5648 5644 5640 5636 5632 5629 5623 5619 5613 5609 5605 5600 5595 5591 5587 5584 5580 5577 5573 5571 5568 5566 5564
5674 5675 5674 5674 5672 5671 5659 5663 5659 5655 5653 5649 5646 5641 5637 5629 5626 5622 5617 5612 5606 5600 5594 5587 5583 5579 5574 5569 5565 5561 5556 5553 5550 5546 5543 5539 5536 5533
5662 5663 5661 5659 5658 5655 5653 5646 5641 5640 5635 5632 5628 5623 5618 5611 5608 5603 5598 5592 5584 5578 5570 5564 5559 5553 5547 5542 5537 5532 5527 5524 5520 5515 5510 5505 5501 5499
5649 5649 5643 5645 5643 5639 5636 5631 5625 5624 5620 5616 5611 5606 5601 5595 5590 5585 5579 5570 5564 5557 5548 5540 5533 5526 5518 5510 5505 5498 5492 5487 5481 5475 5471 5466 5462 5460
5636 5636 5635 5632 5628 5625 5619 5615 5612 5607 5602 5597 5593 5588 5584 5578 5570 5564 5557 5550 5543 5533 5525 5514 5507 5496 5484 5476 5467 5458 5452 5445 5438 5434 5431 5429 5426 5426
5624 5623 5621 5619 5615 5611 5606 5602 5597 5591 5586 5581 5575 5569 5564 5558 5552 5544 5536 5528 5522 5506 5500 5490 5476 5466 5452 5441 5430 5424 5419 5416 5413 5411 5409 5409 5408 5408
5612 5611 5608 5605 5601 5596 5591 5586 5580 5574 5570 5564 5558 5552 5546 5538 5531 5523 5512 5503 5492 5479 5472 5466 5444 5440 5431 5423 5413 5406 5401 5396 5393 5390 5388 5388 5387 5387
5602 5598 5597 5592 5589 5582 5578 5573 5566 5559 5552 5545 5539 5532 5525 5516 5507 5498 5487 5477 5464 5450 5444 5449 5433 5428 5421 5408 5398 5392 5386 5381 5374 5369 5365 5364 5363 5363
5590 5588 5583 5580 5576 5572 5566 5558 5550 5543 5535 5527 5519 5510 5501 5491 5482 5473 5462 5455 5449 5438 5432 5431 5419 5416 5406 5395 5388 5380 5375 5368 5362 5358 5353 5348 5345 5343
5580 5579 5575 5570 5563 5557 5551 5543 5534 5524 5515 5504 5496 5487 5477 5467 5460 5455 5451 5445 5438 5431 5422 5419 5409 5405 5400 5387 5380 5372 5367 5361 5355 5350 5345 5341 5337 5335
5573 5568 5563 5557 5550 5542 5533 5524 5514 5502 5491 5481 5471 5464 5460 5456 5451 5446 5440 5432 5425 5417 5412 5408 5402 5396 5390 5385 5373 5366 5360 5354 5349 5344 5340 5336 5332 5329
5563 5558 5551 5542 5533 5523 5512 5500 5490 5481 5473 5467 5462 5457 5452 5448 5442 5435 5427 5419 5414 5409 5403 5400 5395 5389 5382 5377 5370 5361 5355 5347 5345 5340 5335 5331 5327 5324
5552 5545 5536 5526 5515 5503 5493 5485 5478 5471 5465 5460 5455 5450 5445 5439 5433 5426 5419 5412 5404 5398 5393 5390 5385 5379 5373 5367 5362 5355 5352 5343 5338 5335 5330 5326 5321 5317
5538 5529 5519 5508 5497 5488 5481 5474 5468 5463 5458 5453 5447 5442 5436 5431 5427 5421 5414 5406 5398 5390 5383 5379 5375 5369 5364 5357 5352 5347 5343 5339 5333 5328 5326 5320 5314 5308
5525 5514 5502 5490 5482 5476 5471 5465 5460 5455 5450 5444 5439 5434 5429 5424 5419 5413 5407 5399 5390 5385 5378 5370 5366 5360 5353 5345 5343 5337 5334 5328 5325 5321 5317 5314 5305 5299
5508 5497 5486 5478 5472 5467 5463 5458 5453 5448 5442 5437 5433 5428 5423 5417 5411 5405 5399 5392 5385 5376 5370 5365 5361 5355 5347 5338 5329 5329 5325 5320 5315 5307 5303 5302 5297 5288
5494 5484 5476 5471 5466 5461 5456 5451 5446 5441 5435 5430 5424 5420 5415 5410 5404 5398 5391 5385 5378 5370 5362 5357 5353 5349 5345 5339 5327 5314 5315 5312 5308 5301 5294 5289 5286 5280
5483 5474 5468 5463 5459 5454 5448 5443 5437 5432 5427 5421 5417 5412 5407 5402 5396 5391 5384 5378 5371 5364 5357 5348 5343 5340 5335 5331 5327 5317 5304 5300 5293 5289 5283 5278 5274 5269
5471 5465 5460 5456 5452 5446 5440 5435 5429 5424 5418 5413 5408 5403 5399 5394 5389 5383 5377 5370 5363 5356 5350 5342 5336 5330 5323 5319 5317 5310 5300 5290 5284 5278 5274 5271 5267 5260
5462 5457 5452 5448 5444 5439 5433 5428 5422 5417 5411 5405 5400 5395 5390 5385 5381 5376 5370 5364 5357 5350 5343 5336 5329 5323 5317 5313 5308 5302 5296 5287 5277 5270 5262 5258 5257 5254
5454 5450 5446 5442 5437 5432 5426 5421 5415 5410 5404 5398 5392 5387 5382 5377 5372 5367 5361 5355 5349 5342 5336 5332 5324 5317 5310 5304 5298 5292 5285 5279 5272 5265 5256 5249 5246 5244